Wisconsin Dells, Wisconsin, United States (53965)
Lat: 43.63N, Lon: 89.77W
Wx Zone: WIZ057
Local Info
Past Weather Observations for Friday, August 28, 2015

NOTE: This archive is for the closest National Weather Service station to Wisconsin Dells. Information may differ from the station used for current weather conditions.

Click here for Long-term Archive

Time Weather Temperature Dewpoint Humidity Pressure Winds Precip Visibility
23:55
Overcast
Drizzle
57°F / 14°C 55°F / 13°C 94% 30.06 in
(1018 mb)
E 10.4 mph
(E 17 kph)
0.08 in
(2.03 mm)
4SM
23:35
Overcast
Drizzle
57°F / 14°C 55°F / 13°C 94% 30.06 in
(1018 mb)
E 11.5 mph
(E 19 kph)
0.06 in
(1.52 mm)
4SM
23:15
Overcast
Rain
57°F / 14°C 55°F / 13°C 94% 30.06 in
(1018 mb)
E 11.5 mph
(E 19 kph)
0.03 in
(0.76 mm)
4SM
22:55
Overcast
Light Rain
57°F / 14°C 55°F / 13°C 94% 30.06 in
(1018 mb)
E 11.5 mph
(E 19 kph)
0.14 in
(3.56 mm)
4SM
22:35
Overcast
Rain
57°F / 14°C 55°F / 13°C 94% 30.06 in
(1018 mb)
ENE 12.7 mph
(ENE 20 kph)
0.08 in
(2.03 mm)
4SM
22:15
Overcast
Light Rain
57°F / 14°C 55°F / 13°C 94% 30.06 in
(1018 mb)
ENE 12.7 mph
(ENE 20 kph)
0.02 in
(0.51 mm)
4SM
21:55
Overcast
Rain
57°F / 14°C 55°F / 13°C 94% 30.06 in
(1018 mb)
ENE 15 mph
(ENE 24 kph)
0.14 in
(3.56 mm)
4SM
21:35
Overcast
Rain
57°F / 14°C 55°F / 13°C 94% 30.09 in
(1019 mb)
NE 9.2 mph
(NE 15 kph)
0.10 in
(2.54 mm)
4SM
21:15
Overcast
Light Rain
57°F / 14°C 55°F / 13°C 94% 30.09 in
(1019 mb)
ENE 9.2 mph
(ENE 15 kph)
0.05 in
(1.27 mm)
4SM
20:55
Overcast
Rain
59°F / 15°C 55°F / 13°C 88% 30.09 in
(1019 mb)
NE 9.2 mph
(NE 15 kph)
0.04 in
(1.02 mm)
4SM
20:35
Overcast
59°F / 15°C 57°F / 14°C 94% 30.09 in
(1019 mb)
NE 9.2 mph
(NE 15 kph)
- 10SM
20:15
Overcast
59°F / 15°C 57°F / 14°C 94% 30.06 in
(1018 mb)
ENE 8.1 mph
(ENE 13 kph)
- 7SM
19:55
Overcast
Light Rain
59°F / 15°C 57°F / 14°C 94% 30.09 in
(1019 mb)
ENE 11.5 mph
(ENE 19 kph)
0.03 in
(0.76 mm)
10SM
19:35
Overcast
Light Rain
59°F / 15°C 57°F / 14°C 94% 30.09 in
(1019 mb)
ENE 8.1 mph
(ENE 13 kph)
0.02 in
(0.51 mm)
10SM
19:15
Overcast
Light Rain
59°F / 15°C 57°F / 14°C 94% 30.06 in
(1018 mb)
ENE 9.2 mph
(ENE 15 kph)
0.02 in
(0.51 mm)
10SM
18:55
Overcast
Light Rain
59°F / 15°C 57°F / 14°C 94% 30.06 in
(1018 mb)
ENE 10.4 mph
(ENE 17 kph)
0.12 in
(3.05 mm)
7SM
18:35
Overcast
Light Rain
61°F / 16°C 57°F / 14°C 88% 30.09 in
(1019 mb)
ENE 8.1 mph
(ENE 13 kph)
0.10 in
(2.54 mm)
5SM
18:15
Overcast
Rain
61°F / 16°C 57°F / 14°C 88% 30.06 in
(1018 mb)
ENE 8.1 mph
(ENE 13 kph)
0.07 in
(1.78 mm)
2 1/2SM
17:55
Overcast
Rain
61°F / 16°C 57°F / 14°C 88% 30.06 in
(1018 mb)
E 3.5 mph
(E 6 kph)
0.12 in
(3.05 mm)
7SM
17:35
Overcast
Rain
61°F / 16°C 57°F / 14°C 88% 30.09 in
(1019 mb)
ESE 5.8 mph
(ESE 9 kph)
0.08 in
(2.03 mm)
5SM
17:15
Overcast
Rain
61°F / 16°C 59°F / 15°C 94% 30.09 in
(1019 mb)
SSE 3.5 mph
(SSE 6 kph)
0.04 in
(1.02 mm)
4SM
16:55
Overcast
Rain
63°F / 17°C 59°F / 15°C 88% 30.06 in
(1018 mb)
ESE 8.1 mph
(ESE 13 kph)
0.10 in
(2.54 mm)
4SM
16:35
Overcast
Rain
63°F / 17°C 59°F / 15°C 88% 30.09 in
(1019 mb)
SSE 3.5 mph
(SSE 6 kph)
0.04 in
(1.02 mm)
7SM
16:15
Overcast
Light Rain
63°F / 17°C 59°F / 15°C 88% 30.06 in
(1018 mb)
SE 5.8 mph
(SE 9 kph)
0.03 in
(0.76 mm)
7SM
15:55
Overcast
Rain
63°F / 17°C 61°F / 16°C 94% 30.06 in
(1018 mb)
ESE 4.6 mph
(ESE 7 kph)
0.09 in
(2.29 mm)
3SM
15:35
Overcast
Light Rain
63°F / 17°C 61°F / 16°C 94% 30.06 in
(1018 mb)
ESE 8.1 mph
(ESE 13 kph)
0.04 in
(1.02 mm)
4SM
15:15
Overcast
Light Rain
63°F / 17°C 61°F / 16°C 94% 30.06 in
(1018 mb)
E 9.2 mph
(E 15 kph)
0.02 in
(0.51 mm)
5SM
14:55
Overcast
Light Rain
63°F / 17°C 61°F / 16°C 94% 30.06 in
(1018 mb)
E 10.4 mph
(E 17 kph)
0.11 in
(2.79 mm)
3SM
14:35
Overcast
Rain
64°F / 18°C 61°F / 16°C 88% 30.09 in
(1019 mb)
SE 3.5 mph
(SE 6 kph)
0.07 in
(1.78 mm)
3SM
14:15
Overcast
Rain
64°F / 18°C 61°F / 16°C 88% 30.09 in
(1019 mb)
Calm 0.04 in
(1.02 mm)
3SM
13:55
Overcast
Light Rain
64°F / 18°C 61°F / 16°C 88% 30.09 in
(1019 mb)
Calm 0.04 in
(1.02 mm)
4SM
13:35
Overcast
Light Rain
64°F / 18°C 61°F / 16°C 88% 30.09 in
(1019 mb)
Calm 0.02 in
(0.51 mm)
7SM
13:15
Overcast
Light Rain
64°F / 18°C 59°F / 15°C 83% 30.12 in
(1020 mb)
Calm 0.01 in
(0.25 mm)
7SM
12:55
Overcast
Light Rain
64°F / 18°C 59°F / 15°C 83% 30.12 in
(1020 mb)
Calm - 7SM
12:35
Overcast
Rain
64°F / 18°C 59°F / 15°C 83% 30.12 in
(1020 mb)
SW 4.6 mph
(SW 7 kph)
- 10SM
12:15
Overcast
Drizzle
64°F / 18°C 59°F / 15°C 83% 30.12 in
(1020 mb)
SSE 3.5 mph
(SSE 6 kph)
- 10SM
11:55
Overcast
64°F / 18°C 57°F / 14°C 78% 30.12 in
(1020 mb)
S 3.5 mph
(S 6 kph)
- 10SM
11:35
Overcast
Drizzle
64°F / 18°C 57°F / 14°C 78% 30.12 in
(1020 mb)
Calm - 10SM
11:15
Mostly Cloudy
Drizzle
64°F / 18°C 57°F / 14°C 78% 30.12 in
(1020 mb)
Calm - 10SM
10:55
Mostly Cloudy
64°F / 18°C 57°F / 14°C 78% 30.12 in
(1020 mb)
SW 4.6 mph
(SW 7 kph)
- 10SM
10:35
Overcast
64°F / 18°C 57°F / 14°C 78% 30.12 in
(1020 mb)
SW 5.8 mph
(SW 9 kph)
- 10SM
10:15
Overcast
Light Rain
64°F / 18°C 57°F / 14°C 78% 30.12 in
(1020 mb)
S 4.6 mph
(S 7 kph)
- 10SM
09:55
Mostly Cloudy
64°F / 18°C 57°F / 14°C 78% 30.12 in
(1020 mb)
S 5.8 mph
(S 9 kph)
- 10SM
09:35
Partly Cloudy
64°F / 18°C 57°F / 14°C 78% 30.12 in
(1020 mb)
S 4.6 mph
(S 7 kph)
- 10SM
09:15
Overcast
Drizzle
63°F / 17°C 57°F / 14°C 83% 30.12 in
(1020 mb)
S 6.9 mph
(S 11 kph)
- 10SM
08:55
Overcast
63°F / 17°C 57°F / 14°C 83% 30.12 in
(1020 mb)
S 5.8 mph
(S 9 kph)
- 10SM
08:35
Mostly Cloudy
63°F / 17°C 57°F / 14°C 83% 30.12 in
(1020 mb)
S 4.6 mph
(S 7 kph)
- 10SM
08:15
Partly Cloudy
63°F / 17°C 57°F / 14°C 83% 30.12 in
(1020 mb)
SSE 4.6 mph
(SSE 7 kph)
- 10SM
07:55
Clear
63°F / 17°C 57°F / 14°C 83% 30.12 in
(1020 mb)
SSE 4.6 mph
(SSE 7 kph)
- 10SM
07:35
Partly Cloudy
61°F / 16°C 57°F / 14°C 88% 30.09 in
(1019 mb)
Calm - 10SM
07:15
Partly Cloudy
61°F / 16°C 57°F / 14°C 88% 30.12 in
(1020 mb)
S 3.5 mph
(S 6 kph)
- 10SM
06:55
Clear
61°F / 16°C 57°F / 14°C 88% 30.12 in
(1020 mb)
S 4.6 mph
(S 7 kph)
- 10SM
06:35
Clear
61°F / 16°C 57°F / 14°C 88% 30.09 in
(1019 mb)
S 5.8 mph
(S 9 kph)
- 7SM
06:15
Clear
61°F / 16°C 57°F / 14°C 88% 30.09 in
(1019 mb)
S 5.8 mph
(S 9 kph)
- 7SM
05:55
Clear
59°F / 15°C 55°F / 13°C 88% 30.09 in
(1019 mb)
S 4.6 mph
(S 7 kph)
- 7SM
05:35
Clear
Fog And Mist
57°F / 14°C 54°F / 12°C 88% 30.09 in
(1019 mb)
S 4.6 mph
(S 7 kph)
- 5SM
05:15
Clear
57°F / 14°C 54°F / 12°C 88% 30.09 in
(1019 mb)
SSE 4.6 mph
(SSE 7 kph)
- 7SM
04:55
Clear
57°F / 14°C 54°F / 12°C 88% 30.09 in
(1019 mb)
SSE 3.5 mph
(SSE 6 kph)
- 10SM
04:35
Partly Cloudy
57°F / 14°C 54°F / 12°C 88% 30.09 in
(1019 mb)
Calm - 7SM
04:15
Mostly Cloudy
57°F / 14°C 54°F / 12°C 88% 30.09 in
(1019 mb)
Calm - 10SM
03:55
Clear
59°F / 15°C 55°F / 13°C 88% 30.09 in
(1019 mb)
Calm - 10SM
03:35
Clear
59°F / 15°C 55°F / 13°C 88% 30.09 in
(1019 mb)
SW 4.6 mph
(SW 7 kph)
- 10SM
03:15
Clear
59°F / 15°C 55°F / 13°C 88% 30.09 in
(1019 mb)
SW 4.6 mph
(SW 7 kph)
- 10SM
02:55
Clear
59°F / 15°C 55°F / 13°C 88% 30.09 in
(1019 mb)
SW 3.5 mph
(SW 6 kph)
- 10SM
02:35
Clear
59°F / 15°C 55°F / 13°C 88% 30.09 in
(1019 mb)
S 4.6 mph
(S 7 kph)
- 10SM
02:15
Clear
59°F / 15°C 55°F / 13°C 88% 30.09 in
(1019 mb)
S 4.6 mph
(S 7 kph)
- 10SM
01:55
Clear
59°F / 15°C 55°F / 13°C 88% 30.09 in
(1019 mb)
S 4.6 mph
(S 7 kph)
- 10SM
01:35
Clear
59°F / 15°C 55°F / 13°C 88% 30.09 in
(1019 mb)
S 5.8 mph
(S 9 kph)
- 10SM
01:15
Clear
59°F / 15°C 55°F / 13°C 88% 30.09 in
(1019 mb)
S 5.8 mph
(S 9 kph)
- 10SM
00:55
Clear
59°F / 15°C 55°F / 13°C 88% 30.09 in
(1019 mb)
S 8.1 mph
(S 13 kph)
- 10SM
00:35
Clear
59°F / 15°C 55°F / 13°C 88% 30.09 in
(1019 mb)
S 8.1 mph
(S 13 kph)
- 10SM
00:15
Clear
59°F / 15°C 55°F / 13°C 88% 30.09 in
(1019 mb)
S 8.1 mph
(S 13 kph)
- 10SM
Time Weather Temperature Dewpoint Humidity Pressure Winds Precip Visibility


Weather for websites

WeatherForYou.com, LLC is not responsible for any damages or problems caused by this service. Current weather conditions are obtained from the closest station including government and personal stations which may have varying degrees of accuracy. Weather forecasts are derived from the NOAA NDFD. Like all things, this site belongs to Jesus Christ... He just trusts us to maintain it. If you have any questions or comments email webmaster@weatherforyou.com

Copyright © 2015, WeatherForYou.com LLC. All rights reserved.